User: anonymous   Login
Location: Santa Barbara
(34.4500°N, 119.7700°W)
Time: 09:06:14
(UTC-07:00)
Language:

Cosmos 1626 Rocket - Orbit

View from above orbital plane
View from above orbital plane
View from above satellite
View from above satellite

Ground track
Ground track

The orbit data is extracted from the following two-line orbital elements,

1 15495U 85009B   15147.54522458  .00000189  00000-0  20022-4 0  9997
2 15495 082.5236 171.4170 0018700 291.3386 068.5833 14.83559803638513
Epoch (UTC): 27 May 2015 13:05:07
Eccentricity: 0.0018700
inclination: 82.5236°
perigee height: 605 km
apogee height: 631 km
right ascension of ascending node: 171.4170°
argument of perigee: 291.3386°
revolutions per day: 14.83559803
mean anomaly at epoch: 68.5833°
orbit number at epoch: 63851

The dashed part of the orbit path shows where the satellite is in the earth's shadow,  

DLR